• In Österreich
  • Länderverzeichnis
  • Für 7 Tage
  • Wassertemperatur
  • Satellitenkarten
  • Wetterkarte
  • News
  • Widgets
  • user-avatar
    Anmelden

    Stündliche Wetter Chihachi

    Heute, 23 Juli, Montag

    Zeit Temperatur Niederschläge Wind Luftdruck Luftfeuchtigkeit
    00:00 +18°C° 0 mm 2 m/S 741 mmHg 98%
    01:00 +19°C° 0 mm 1 m/S 741 mmHg 98%
    02:00 +19°C° 0 mm 1 m/S 741 mmHg 98%
    03:00 +18°C° 0 mm 2 m/S 741 mmHg 98%
    04:00 +18°C° 0 mm 2 m/S 741 mmHg 98%
    05:00 +18°C° 0 mm 2 m/S 741 mmHg 98%
    06:00 +19°C° 0,1 mm 2 m/S 741 mmHg 93%
    07:00 +20°C° 0,1 mm 2 m/S 741 mmHg 89%
    08:00 +21°C° 0,1 mm 2 m/S 742 mmHg 85%
    09:00 +22°C° 0,3 mm 3 m/S 742 mmHg 81%
    10:00 +24°C° 0,3 mm 3 m/S 742 mmHg 76%
    11:00 +25°C° 0,3 mm 3 m/S 742 mmHg 72%
    12:00 +25°C° 0,2 mm 3 m/S 742 mmHg 70%
    13:00 +25°C° 0,2 mm 3 m/S 741 mmHg 68%
    14:00 +26°C° 0,2 mm 3 m/S 741 mmHg 65%
    15:00 +25°C° 0,1 mm 3 m/S 741 mmHg 66%
    16:00 +25°C° 0,1 mm 3 m/S 741 mmHg 68%
    17:00 +25°C° 0,1 mm 2 m/S 741 mmHg 69%
    18:00 +24°C° 0 mm 2 m/S 742 mmHg 76%
    19:00 +21°C° 0 mm 2 m/S 742 mmHg 83%
    20:00 +20°C° 0 mm 2 m/S 742 mmHg 89%
    21:00 +19°C° 0 mm 2 m/S 742 mmHg 92%
    22:00 +18°C° 0 mm 2 m/S 742 mmHg 95%
    23:00 +17°C° 0 mm 2 m/S 742 mmHg 97%

    Morgen, 24 Juli, Dienstag

    Zeit Temperatur Niederschläge Wind Luftdruck Luftfeuchtigkeit
    00:00 +17°C° 0 mm 2 m/S 742 mmHg 98%
    01:00 +16°C° 0 mm 2 m/S 742 mmHg 98%
    02:00 +16°C° 0 mm 2 m/S 742 mmHg 98%
    03:00 +16°C° 0 mm 2 m/S 742 mmHg 97%
    04:00 +16°C° 0 mm 2 m/S 743 mmHg 97%
    05:00 +16°C° 0 mm 2 m/S 743 mmHg 96%
    06:00 +18°C° 0 mm 2 m/S 743 mmHg 91%
    07:00 +19°C° 0 mm 2 m/S 743 mmHg 86%
    08:00 +20°C° 0 mm 3 m/S 743 mmHg 81%
    09:00 +21°C° 0,1 mm 3 m/S 743 mmHg 77%
    10:00 +22°C° 0,1 mm 3 m/S 743 mmHg 74%
    11:00 +24°C° 0,1 mm 3 m/S 743 mmHg 70%
    12:00 +25°C° 0,4 mm 3 m/S 743 mmHg 71%
    13:00 +25°C° 0,4 mm 3 m/S 743 mmHg 71%
    14:00 +25°C° 0,4 mm 3 m/S 743 mmHg 72%
    15:00 +25°C° 0,4 mm 3 m/S 743 mmHg 74%
    16:00 +25°C° 0,4 mm 3 m/S 743 mmHg 76%
    17:00 +25°C° 0,4 mm 3 m/S 743 mmHg 78%
    18:00 +24°C° 0,2 mm 2 m/S 743 mmHg 83%
    19:00 +21°C° 0,2 mm 2 m/S 743 mmHg 87%
    20:00 +20°C° 0,2 mm 2 m/S 743 mmHg 92%
    21:00 +20°C° 0 mm 2 m/S 743 mmHg 94%
    22:00 +19°C° 0 mm 2 m/S 743 mmHg 95%
    23:00 +20°C° 0 mm 1 m/S 744 mmHg 96%

    übermorgen, 25 Juli, Mittwoch

    Zeit Temperatur Niederschläge Wind Luftdruck Luftfeuchtigkeit
    00:00 +19°C° 0 mm 2 m/S 744 mmHg 97%
    01:00 +18°C° 0 mm 2 m/S 744 mmHg 97%
    02:00 +18°C° 0 mm 2 m/S 744 mmHg 98%
    03:00 +18°C° 0 mm 2 m/S 744 mmHg 98%
    04:00 +18°C° 0 mm 2 m/S 744 mmHg 98%
    05:00 +18°C° 0 mm 2 m/S 744 mmHg 98%
    06:00 +19°C° 0 mm 2 m/S 744 mmHg 93%
    07:00 +21°C° 0 mm 2 m/S 744 mmHg 87%
    08:00 +24°C° 0 mm 2 m/S 745 mmHg 82%
    09:00 +25°C° 0 mm 2 m/S 745 mmHg 75%
    10:00 +27°C° 0 mm 2 m/S 745 mmHg 68%
    11:00 +29°C° 0 mm 2 m/S 745 mmHg 61%
    12:00 +28°C° 0,6 mm 3 m/S 745 mmHg 66%
    13:00 +28°C° 0,6 mm 3 m/S 745 mmHg 71%
    14:00 +28°C° 0,6 mm 3 m/S 744 mmHg 76%
    15:00 +27°C° 0,4 mm 3 m/S 745 mmHg 75%
    16:00 +27°C° 0,4 mm 3 m/S 745 mmHg 75%
    17:00 +27°C° 0,4 mm 3 m/S 745 mmHg 75%
    18:00 +25°C° 0 mm 2 m/S 745 mmHg 80%
    19:00 +24°C° 0 mm 2 m/S 745 mmHg 84%
    20:00 +21°C° 0 mm 2 m/S 745 mmHg 89%
    21:00 +21°C° 0 mm 2 m/S 746 mmHg 89%
    22:00 +20°C° 0 mm 2 m/S 746 mmHg 90%
    23:00 +19°C° 0 mm 2 m/S 746 mmHg 90%

    26 Juli, Donnerstag

    Zeit Temperatur Niederschläge Wind Luftdruck Luftfeuchtigkeit
    00:00 +18°C° 0 mm 2 m/S 746 mmHg 90%
    01:00 +17°C° 0 mm 2 m/S 746 mmHg 90%
    02:00 +17°C° 0 mm 2 m/S 746 mmHg 89%
    03:00 +17°C° 0 mm 2 m/S 746 mmHg 88%
    04:00 +17°C° 0 mm 2 m/S 746 mmHg 86%
    05:00 +17°C° 0 mm 3 m/S 746 mmHg 84%
    06:00 +19°C° 0 mm 3 m/S 746 mmHg 79%
    07:00 +20°C° 0 mm 3 m/S 746 mmHg 73%
    08:00 +22°C° 0 mm 3 m/S 746 mmHg 68%
    09:00 +25°C° 0 mm 4 m/S 746 mmHg 64%
    10:00 +27°C° 0 mm 4 m/S 746 mmHg 59%
    11:00 +29°C° 0 mm 4 m/S 746 mmHg 54%
    12:00 +29°C° 0,2 mm 4 m/S 746 mmHg 54%
    13:00 +30°C° 0,2 mm 4 m/S 746 mmHg 53%
    14:00 +30°C° 0,2 mm 4 m/S 746 mmHg 52%
    15:00 +30°C° 0,1 mm 4 m/S 746 mmHg 54%
    16:00 +30°C° 0,1 mm 3 m/S 746 mmHg 57%
    17:00 +29°C° 0,1 mm 3 m/S 746 mmHg 59%
    18:00 +27°C° 0,4 mm 3 m/S 746 mmHg 68%
    19:00 +25°C° 0,4 mm 3 m/S 746 mmHg 77%
    20:00 +22°C° 0,4 mm 3 m/S 746 mmHg 86%
    21:00 +21°C° 0,1 mm 3 m/S 746 mmHg 87%
    22:00 +21°C° 0,1 mm 3 m/S 746 mmHg 89%
    23:00 +20°C° 0,1 mm 3 m/S 746 mmHg 90%

    27 Juli, Freitag

    Zeit Temperatur Niederschläge Wind Luftdruck Luftfeuchtigkeit
    00:00 +20°C° 0,2 mm 3 m/S 747 mmHg 92%
    01:00 +20°C° 0,2 mm 2 m/S 747 mmHg 93%
    02:00 +19°C° 0,2 mm 2 m/S 747 mmHg 95%
    03:00 +19°C° 0 mm 2 m/S 747 mmHg 95%
    04:00 +19°C° 0 mm 2 m/S 747 mmHg 96%
    05:00 +19°C° 0 mm 2 m/S 747 mmHg 96%
    06:00 +20°C° 0 mm 2 m/S 747 mmHg 92%
    07:00 +21°C° 0 mm 2 m/S 748 mmHg 88%
    08:00 +24°C° 0 mm 2 m/S 748 mmHg 83%
    09:00 +26°C° 0 mm 3 m/S 748 mmHg 76%
    10:00 +27°C° 0 mm 3 m/S 748 mmHg 68%
    11:00 +29°C° 0 mm 3 m/S 748 mmHg 60%
    12:00 +30°C° 0,2 mm 3 m/S 748 mmHg 57%
    13:00 +30°C° 0,2 mm 4 m/S 748 mmHg 54%
    14:00 +32°C° 0,2 mm 4 m/S 748 mmHg 51%
    15:00 +30°C° 0,2 mm 4 m/S 748 mmHg 54%
    16:00 +30°C° 0,2 mm 4 m/S 748 mmHg 57%
    17:00 +29°C° 0,2 mm 3 m/S 748 mmHg 61%
    18:00 +28°C° 0,2 mm 3 m/S 748 mmHg 67%
    19:00 +26°C° 0,2 mm 3 m/S 748 mmHg 72%
    20:00 +25°C° 0,2 mm 2 m/S 749 mmHg 78%
    21:00 +24°C° 0 mm 2 m/S 749 mmHg 80%
    22:00 +23°C° 0 mm 2 m/S 749 mmHg 81%
    23:00 +21°C° 0 mm 2 m/S 749 mmHg 83%

    28 Juli, Samstag

    Zeit Temperatur Niederschläge Wind Luftdruck Luftfeuchtigkeit
    00:00 +21°C° 0 mm 2 m/S 749 mmHg 84%
    01:00 +20°C° 0 mm 2 m/S 749 mmHg 86%
    02:00 +20°C° 0 mm 2 m/S 749 mmHg 88%
    03:00 +20°C° 0 mm 2 m/S 750 mmHg 89%
    04:00 +20°C° 0 mm 2 m/S 750 mmHg 90%
    05:00 +20°C° 0 mm 2 m/S 750 mmHg 90%
    06:00 +23°C° 0 mm 2 m/S 750 mmHg 83%
    07:00 +24°C° 0 mm 2 m/S 750 mmHg 76%
    08:00 +26°C° 0 mm 2 m/S 750 mmHg 69%
    09:00 +28°C° 0 mm 3 m/S 750 mmHg 61%
    10:00 +29°C° 0 mm 3 m/S 750 mmHg 54%
    11:00 +31°C° 0 mm 3 m/S 750 mmHg 46%
    12:00 +31°C° 0 mm 3 m/S 750 mmHg 45%
    13:00 +31°C° 0 mm 3 m/S 750 mmHg 44%
    14:00 +33°C° 0 mm 3 m/S 750 mmHg 42%
    15:00 +31°C° 0 mm 3 m/S 750 mmHg 46%
    16:00 +31°C° 0 mm 2 m/S 750 mmHg 51%
    17:00 +30°C° 0 mm 2 m/S 750 mmHg 55%
    18:00 +28°C° 0 mm 2 m/S 750 mmHg 62%
    19:00 +26°C° 0 mm 2 m/S 750 mmHg 68%
    20:00 +24°C° 0 mm 2 m/S 750 mmHg 75%
    21:00 +23°C° 0 mm 2 m/S 750 mmHg 77%
    22:00 +21°C° 0 mm 2 m/S 750 mmHg 79%
    23:00 +22°C° 0 mm 1 m/S 750 mmHg 81%
    Mehr zeigen